Location: Ames
(42.0350°N, 93.6200°W)
Time: 22:15:00
(UTC-06:00)

ISS - All Passes

Search period start: 16 December 2017 00:00
Search period end: 26 December 2017 00:00
Orbit: 402 x 406 km, 51.6° (Epoch: 17 December)

Date Brightness Start Highest point End Pass type
(mag) Time Alt. Az. Time Alt. Az. Time Alt. Az.
16 Dec - 09:48:28 10° SE 09:48:50 10° SE 09:49:12 10° ESE daylight
16 Dec - 11:21:31 10° SW 11:24:48 87° SSE 11:28:07 10° NE daylight
16 Dec - 12:59:01 10° WNW 13:01:38 21° NNW 13:04:16 10° NE daylight
16 Dec - 14:36:54 10° NW 14:39:00 16° N 14:41:05 10° NE daylight
16 Dec - 16:13:17 10° NW 16:16:15 30° NNE 16:19:12 10° E daylight
16 Dec - 17:49:40 10° WNW 17:52:48 41° SW 17:55:55 10° SSE visible
17 Dec - 10:29:27 10° SSW 10:32:36 45° SE 10:35:46 10° ENE daylight
17 Dec - 12:06:14 10° W 12:09:10 29° NNW 12:12:07 10° NE daylight
17 Dec - 13:44:22 10° NW 13:46:26 15° N 13:48:30 10° NE daylight
17 Dec - 15:21:08 10° NW 15:23:47 22° NNE 15:26:27 10° ENE daylight
17 Dec - 16:57:18 10° WNW 17:00:36 81° SSW 17:03:51 10° SE daylight
18 Dec - 09:37:45 10° S 09:40:26 24° SE 09:43:09 10° E daylight
18 Dec - 11:13:36 10° WSW 11:16:46 43° NNW 11:19:57 10° NE daylight
18 Dec - 12:51:38 10° NW 12:53:52 17° N 12:56:07 10° NE daylight
18 Dec - 14:28:55 10° NW 14:31:17 18° NNE 14:33:38 10° ENE daylight
18 Dec - 16:05:03 10° NW 16:08:17 56° NNE 16:11:32 10° ESE daylight
18 Dec - 17:42:11 10° W 17:44:30 18° SW 17:46:48 10° S visible
19 Dec - 08:46:48 10° SSE 08:48:22 13° SE 08:49:56 10° ESE daylight
19 Dec - 10:21:08 10° WSW 10:24:26 76° NNW 10:27:43 10° NE daylight
19 Dec - 11:58:48 10° WNW 12:01:20 20° NNW 12:03:51 10° NE daylight
19 Dec - 13:36:35 10° NW 13:38:42 16° N 13:40:50 10° NE daylight
19 Dec - 15:12:51 10° NW 15:15:54 34° NNE 15:18:57 10° E daylight
19 Dec - 16:49:22 10° WNW 16:52:22 33° SW 16:55:21 10° SSE daylight
20 Dec - 09:28:55 10° SW 09:32:09 57° SE 09:35:23 10° ENE daylight
20 Dec - 11:06:00 10° W 11:08:49 26° NNW 11:11:38 10° NE daylight
20 Dec - 12:44:04 10° NW 12:46:07 15° N 12:48:10 10° NE daylight
20 Dec - 14:20:40 10° NW 14:23:26 24° NNE 14:26:12 10° ENE daylight
20 Dec - 15:56:53 10° WNW 16:00:09 65° SW 16:03:24 10° SE daylight
21 Dec - 08:37:02 10° SSW 08:39:56 29° SE 08:42:51 10° ENE daylight
21 Dec - 10:13:15 10° W 10:16:20 37° NNW 10:19:27 10° NE daylight
21 Dec - 11:51:20 10° NW 11:53:31 16° N 11:55:40 10° NE daylight
21 Dec - 13:28:26 10° NW 13:30:54 19° NNE 13:33:21 10° ENE daylight
21 Dec - 15:04:33 10° NW 15:07:50 68° NNE 15:11:06 10° ESE daylight
21 Dec - 16:42:05 10° W 16:43:57 14° SW 16:45:49 10° SSW daylight
22 Dec - 07:45:41 10° S 07:47:47 16° SE 07:49:53 10° E daylight
22 Dec - 09:20:41 10° WSW 09:23:56 62° NNW 09:27:12 10° NE daylight
22 Dec - 10:58:30 10° WNW 11:00:55 18° NNW 11:03:19 10° NE daylight
22 Dec - 12:36:06 10° NW 12:38:18 16° N 12:40:30 10° NE daylight
22 Dec - 14:12:19 10° NW 14:15:26 40° NNE 14:18:34 10° E daylight
22 Dec - 15:48:59 10° WNW 15:51:48 26° SW 15:54:37 10° SSE daylight
23 Dec - 08:28:19 10° SW 08:31:35 72° SE 08:34:52 10° ENE daylight
23 Dec - 10:05:38 10° WNW 10:08:20 23° NNW 10:11:03 10° NE daylight
23 Dec - 11:43:37 10° NW 11:45:40 15° N 11:47:44 10° NE daylight
23 Dec - 13:20:05 10° NW 13:22:57 27° NNE 13:25:50 10° E daylight
23 Dec - 14:56:22 10° WNW 14:59:35 51° SW 15:02:46 10° SE daylight
24 Dec - 07:36:16 10° SSW 07:39:19 37° SE 07:42:22 10° ENE daylight
24 Dec - 09:12:49 10° W 09:15:49 32° NNW 09:18:50 10° NE daylight
24 Dec - 10:50:56 10° NW 10:53:02 16° N 10:55:08 10° NE daylight
24 Dec - 12:27:50 10° NW 12:30:24 21° NNE 12:32:58 10° ENE daylight
24 Dec - 14:03:58 10° NW 14:07:16 84° NNE 14:10:33 10° ESE daylight
24 Dec - 15:42:05 10° WSW 15:43:16 12° SW 15:44:27 10° SSW daylight
25 Dec - 06:44:39 10° S 06:47:06 20° SE 06:49:34 10° E visible
25 Dec - 08:20:08 10° WSW 08:23:20 51° NNW 08:26:34 10° NE daylight
25 Dec - 09:58:04 10° NW 10:00:23 17° N 10:02:42 10° NE daylight
25 Dec - 11:35:30 10° NW 11:37:47 17° N 11:40:04 10° NE daylight
25 Dec - 13:11:39 10° NW 13:14:51 47° NNE 13:18:02 10° ESE daylight
25 Dec - 14:48:33 10° W 14:51:07 21° SW 14:53:42 10° S daylight
